Overview Statistics Trail Chart Weather Telemetry Raw packets
 

This is the latest recevied weather packets stored in our database for station/object KB1MS. If no packets are shown the sender has not sent any weather packets the latest 10 day(s).

<< 111 112 113 114 >>
Time Temp. Humidity Pressure Rain* Wind** Luminosity Snow
1787765006 27.78° C 54% 1016.8 hPa 0 mm - 175 W/m² -
1787764702 27.22° C 55% 1017 hPa 0 mm - 773 W/m² -
1787764402 26.67° C 53% 1017.1 hPa 0 mm - 757 W/m² -
1787764098 26.67° C 54% 1017.2 hPa 0 mm - 737 W/m² -
1787763794 25.56° C 56% 1017.2 hPa 0 mm - 730 W/m² -
1787763489 25.56° C 59% 1017.2 hPa 0 mm - 135 W/m² -
1787763189 25° C 59% 1017.1 hPa 0 mm - 779 W/m² -
1787762884 25.56° C 57% 1017.3 hPa 0 mm - 137 W/m² -
1787762578 26.67° C 57% 1017.3 hPa 0 mm - 161 W/m² -
1787762275 26.67° C 59% 1017.1 hPa 0 mm - 816 W/m² -
1787761970 26.67° C 56% 1017.2 hPa 0 mm - 834 W/m² -
1787761665 26.67° C 56% 1017.2 hPa 0 mm - 817 W/m² -
1787761360 26.11° C 58% 1017 hPa 0 mm - 818 W/m² -
1787761059 25° C 57% 1017.3 hPa 0 mm - 772 W/m² -
1787760758 24.44° C 60% 1017.3 hPa 0 mm - 744 W/m² -
1787760458 25° C 60% 1017.4 hPa 0 mm - 152 W/m² -
1787760153 25° C 59% 1017.4 hPa 0 mm - 103 W/m² -
1787759850 25° C 59% 1017.2 hPa 0 mm - 741 W/m² -
1787759545 23.89° C 61% 1017.1 hPa 0 mm - 132 W/m² -
1787759241 24.44° C 60% 1017.5 hPa 0 mm - 105 W/m² -
1787758941 24.44° C 60% 1017.2 hPa 0 mm - 406 W/m² -
1787758635 25° C 60% 1017.3 hPa 0 mm - 678 W/m² -
1787758334 23.89° C 60% 1017.4 hPa 0 mm - 659 W/m² -

* Rain latest hour (hover to see other rain measurements)
** Current wind speed in m/s (hover to see current wind gust speed)